COSMOS 1275 DEB, 12748

Orbit data source: Space-Track

COSMOS 1275 DEB, 12748 is space debris in LEO originally from a launch on Thu, 04 Jun 1981 UTC launched from the Plesetsk Missile And Space Complex (PKMTR). Debris objects in space refer to the collection of defunct objects orbiting the Earth. Examples of debris include non-operational satellites, rocket bodies, and fragments generated from explosions, collisions, or faulty payload assembly.

Loading next visibility...
Identifier
12748, 1981-053CR
Orbit
LEO
Country
Flag of CISCIS
Related business
Manufacturer
Unknown
Mission
Spacecraft
Bus & Motor
Unknown
Mass
Unknown
Launch date (UTC)
1981-06-04 (45 years ago)
Launch vehicle
Unknown
Launch site
Plesetsk Missile And Space Complex (PKMTR)
Object type
Payload
Rocket body
Debris
Shape & HBR
Unknown shape, 0.2 m
Radar Cross Section
Medium (>0.1 m² and <1 m²)

Expand to show TLE details & history
Last TLE update: 2 days ago

TLE from 2 days ago
0 COSMOS 1275 DEB
1 12748U 81053CR  26171.31343065  .00000205  00000-0  19815-3 0  9995
2 12748  82.9871  12.5854 0043072 306.3102 236.1953 13.74963965246807
Epoch: 2026-06-20T07:31Z
TLE epoch observation values (Epoch: 2026-06-20T07:31:20.408Z)
Latitude
-2.20863°
Longitude
171.49094°
Altitude
1,002.752 km
Speed
7.341 km/s
True Right ascension
12h 51m 25s
True Declination
-2° 11' 45"
Sunlit
Object was in daylight at epoch
Visualization orbit readout
Latitude
Unknown
Longitude
Unknown
Altitude
Unknown
Speed
Unknown
Apparent Right ascension
Unknown
Apparent Declination
Unknown
Sunlit
N/A
Visualization observer readout
Local Sidereal Time
23:27:08
Azimuth
Unknown
Elevation
Unknown
Doppler factor
Unknown
Orbital elements
Apogee altitude
1,010.639 km
Perigee altitude
947.262 km
Semi-major axis
7,357.087 km
Eccentricity
0.00431
Inclination
82.9871°
RAAN
12.5854°
Arg. of periapsis
306.3102°
True anomaly
235.7864°
Mean anomaly
236.1953°
Eccentric anomaly
235.99073°
Mean motion
3.43941 °/min
Orbital period
104.67 mins
BSTAR
0.00019815
Loading maneuver chart data...
Computing Atmospheric mass density...

Documentation

Showing up to 5 results
|